Gold Coast Seaway Observation History
Time Wind Speed Temp Pressure Rel. Hum Rain
25/10:00pm S 10-12 kts 23.4°c 1014.3 hPa 89% 21.0mm
25/09:30pm S 7-8 kts 22.9°c 1014.4 hPa 87% 20.6mm
25/09:00pm S 8-10 kts 22.7°c 1014.3 hPa 87% 20.6mm
25/08:30pm SSW 7-8 kts 23.0°c 1014.2 hPa 87% 20.6mm
25/08:00pm SSE 12-14 kts 23.3°c 1014.1 hPa 87% 20.6mm
25/07:30pm S 13-16 kts 23.2°c 1014.0 hPa 88% 20.6mm
25/07:00pm S 12-16 kts 23.1°c 1013.9 hPa 88% 20.6mm
25/06:30pm S 7-8 kts 23.1°c 1013.7 hPa 88% 20.6mm
25/06:00pm S 6-8 kts 23.2°c 1013.5 hPa 89% 20.6mm
25/05:30pm SSW 7-9 kts 23.0°c 1013.5 hPa 89% 19.2mm
25/05:00pm S 8-16 kts 23.4°c 1013.4 hPa 85% 10.0mm
25/04:30pm S 9-13 kts 24.2°c 1013.1 hPa 82% 3.8mm
25/04:00pm ESE 12-15 kts 26.1°c 1013.0 hPa 74% 3.2mm
25/03:30pm ESE 13-15 kts 26.5°c 1013.0 hPa 76% 3.2mm
25/03:00pm ESE 14-17 kts 26.3°c 1013.2 hPa 74% 3.2mm
25/02:30pm SE 12-14 kts 26.7°c 1013.4 hPa 73% 3.2mm
25/02:00pm SSE 9-14 kts 25.3°c 1013.9 hPa 84% 3.2mm
25/01:30pm S 16-20 kts 24.6°c 1014.1 hPa 84% 3.2mm
25/01:00pm SSE 14-18 kts 24.4°c 1014.6 hPa 85% 3.2mm
25/12:30pm SSE 10-14 kts 24.3°c 1015.0 hPa 84% 1.2mm
25/12:00pm ESE 13-16 kts 24.6°c 1015.2 hPa 75% 0.0mm
25/11:30am SSE 15-17 kts 27.1°c 1015.2 hPa 68% 0.0mm
25/11:00am SSE 16-20 kts 27.2°c 1015.5 hPa 73% 0.0mm
25/10:30am SSE 16-20 kts 26.8°c 1015.8 hPa 70% 0.0mm
25/10:00am S 16-18 kts 26.7°c 1016.0 hPa 72% 0.0mm
25/09:30am SSE 17-21 kts 26.1°c 1016.1 hPa 73% 0.0mm
25/09:00am S 19-22 kts 25.3°c 1016.1 hPa 76% 10.8mm
25/08:30am S 17-19 kts 25.6°c 1016.0 hPa 75% 10.8mm
25/08:00am SSE 17-20 kts 25.1°c 1015.7 hPa 78% 10.8mm
25/07:30am S 12-17 kts 24.1°c 1015.6 hPa 79% 10.8mm
25/07:00am S 9-14 kts 23.3°c 1015.5 hPa 82% 10.8mm
25/06:30am S 9-14 kts 22.5°c 1015.3 hPa 84% 10.8mm
25/06:00am S 11-18 kts 21.9°c 1015.3 hPa 86% 10.8mm
25/05:30am SSW 8-10 kts 21.6°c 1015.3 hPa 86% 10.8mm
25/05:00am S 10-15 kts 21.8°c 1014.9 hPa 86% 10.8mm
25/04:30am S 10-16 kts 21.6°c 1014.7 hPa 86% 10.8mm
25/04:00am S 8-11 kts 21.5°c 1014.8 hPa 87% 10.8mm
25/03:30am SSW 8-12 kts 21.6°c 1015.0 hPa 87% 10.8mm
25/03:00am S 8-10 kts 21.4°c 1014.9 hPa 87% 10.8mm
25/02:30am S 8-11 kts 21.4°c 1015.3 hPa 87% 10.8mm
25/02:00am SSW 9-11 kts 21.5°c 1015.5 hPa 88% 10.8mm
25/01:30am SSW 8-11 kts 21.3°c 1015.9 hPa 87% 10.8mm
25/01:00am S 9-15 kts 21.2°c 1016.1 hPa 87% 10.8mm
25/12:30am S 9-14 kts 21.2°c 1016.4 hPa 87% 10.6mm
25/12:00am S 11-14 kts 21.2°c 1016.8 hPa 88% 10.6mm
Time Wind Speed Temp Pressure Rel. Hum Rain
24/11:30pm S 10-14 kts 21.3°c 1017.1 hPa 88% 10.6mm
24/11:00pm S 12-18 kts 21.4°c 1017.2 hPa 88% 10.6mm
24/10:30pm S 16-19 kts 21.6°c 1017.3 hPa 89% 10.6mm
24/10:00pm S 10-15 kts 21.5°c 1017.4 hPa 88% 10.6mm
24/09:30pm S 10-14 kts 21.5°c 1017.6 hPa 88% 10.6mm
24/09:00pm SSW 9-11 kts 21.6°c 1017.5 hPa 88% 10.6mm
24/08:30pm S 11-15 kts 21.5°c 1017.6 hPa 88% 10.6mm
24/08:00pm S 11-18 kts 21.7°c 1017.7 hPa 88% 10.6mm
24/07:30pm S 11-19 kts 21.8°c 1017.3 hPa 89% 10.6mm
24/07:00pm S 11-16 kts 22.1°c 1017.0 hPa 90% 10.4mm
24/06:30pm SSW 9-12 kts 22.1°c 1016.6 hPa 89% 9.8mm
24/06:00pm S 10-15 kts 22.1°c 1016.3 hPa 88% 9.4mm
24/05:30pm S 13-17 kts 22.9°c 1016.0 hPa 88% 7.6mm
24/05:00pm SSE 8-13 kts 23.2°c 1015.8 hPa 83% 4.2mm
24/04:30pm SE 13-18 kts 23.5°c 1015.9 hPa 82% 4.0mm
24/04:00pm SSE 10-17 kts 24.2°c 1015.8 hPa 83% 4.0mm
24/03:30pm S 9-13 kts 24.6°c 1015.8 hPa 85% 4.0mm
24/03:00pm SSE 9-11 kts 23.6°c 1015.9 hPa 86% 4.0mm
24/02:30pm SSE 16-20 kts 25.2°c 1016.2 hPa 78% 1.4mm
24/02:00pm SSE 15-17 kts 25.4°c 1016.3 hPa 80% 1.4mm
24/01:30pm SSE 13-16 kts 24.1°c 1016.6 hPa 84% 1.4mm
24/01:00pm SSE 13-16 kts 24.1°c 1017.4 hPa 85% 1.4mm
24/12:30pm S 15-20 kts 24.2°c 1017.2 hPa 86% 1.4mm
24/12:00pm S 14-17 kts 24.8°c 1017.4 hPa 89% 1.4mm
24/11:30am SSE 14-16 kts 23.0°c 1017.3 hPa 89% 1.2mm
24/11:00am S 8-12 kts 22.7°c 1017.9 hPa 88% 0.8mm
24/10:30am SW 5-7 kts 22.9°c 1018.6 hPa 87% 0.6mm
24/10:00am SSW 6-9 kts 23.1°c 1018.6 hPa 89% 0.6mm
24/09:30am SSW 7-9 kts 22.6°c 1018.6 hPa 90% 0.6mm
24/09:00am S 6-7 kts 22.3°c 1018.6 hPa 90% 20.2mm
24/08:30am SW 6-9 kts 21.6°c 1018.6 hPa 90% 19.8mm
24/08:00am NNW 8-12 kts 21.4°c 1018.3 hPa 89% 14.6mm
24/07:30am WSW 5-9 kts 21.9°c 1017.9 hPa 87% 5.0mm
24/07:00am SSW 5-9 kts 21.9°c 1017.8 hPa 87% 4.6mm
24/06:30am SW 5-7 kts 21.8°c 1017.7 hPa 89% 4.6mm
24/06:00am WSW 5-7 kts 21.8°c 1017.7 hPa 88% 4.4mm
24/05:30am SW 6-7 kts 21.7°c 1017.7 hPa 88% 4.4mm
24/05:00am SSW 6-8 kts 21.6°c 1017.3 hPa 88% 4.4mm
24/04:30am SSW 7-10 kts 21.6°c 1017.2 hPa 88% 4.2mm
24/04:00am S 7-8 kts 21.5°c 1016.8 hPa 88% 4.2mm
24/03:30am S 7-8 kts 21.6°c 1017.0 hPa 87% 4.0mm
24/03:00am SSW 6-8 kts 21.7°c 1017.2 hPa 88% 3.8mm
24/02:30am SSW 6-8 kts 21.6°c 1017.3 hPa 88% 3.8mm
24/02:00am S 7-8 kts 21.6°c 1017.5 hPa 88% 3.8mm
24/01:30am SSW 8-10 kts 21.6°c 1017.7 hPa 88% 3.8mm
24/01:00am S 7-10 kts 21.7°c 1018.1 hPa 88% 3.8mm
24/12:30am SSW 8-12 kts 21.8°c 1018.4 hPa 87% 3.6mm
24/12:00am S 14-17 kts 22.1°c 1018.6 hPa 87% 3.0mm
Time Wind Speed Temp Pressure Rel. Hum Rain
23/11:30pm S 9-14 kts 21.8°c 1018.9 hPa 87% 3.0mm
23/11:00pm S 8-11 kts 21.8°c 1019.2 hPa 86% 3.0mm
23/10:30pm S 8-11 kts 21.8°c 1019.5 hPa 87% 2.6mm
23/10:00pm S 13-16 kts 22.0°c 1019.6 hPa 85% 2.6mm
23/09:30pm S 15-18 kts 22.6°c 1019.6 hPa 84% 2.2mm
23/09:00pm S 12-17 kts 22.8°c 1019.7 hPa 80% 2.2mm
23/08:30pm SSE 15-18 kts 23.1°c 1019.7 hPa 82% 2.2mm
23/08:00pm SSE 16-19 kts 22.8°c 1019.4 hPa 81% 2.2mm
23/07:30pm S 10-13 kts 22.4°c 1019.3 hPa 79% 2.2mm
23/07:00pm S 12-16 kts 22.6°c 1019.2 hPa 75% 2.2mm
23/06:30pm S 13-17 kts 22.7°c 1018.8 hPa 77% 2.2mm
23/06:00pm SSE 18-22 kts 23.4°c 1018.5 hPa 81% 2.2mm
23/05:30pm S 20-24 kts 23.2°c 1018.4 hPa 80% 2.2mm
23/05:00pm SSE 18-21 kts 23.5°c 1018.7 hPa 78% 2.2mm
23/04:30pm SSE 18-22 kts 24.2°c 1018.7 hPa 71% 2.2mm
23/04:00pm SSE 19-22 kts 24.4°c 1018.5 hPa 69% 2.2mm
23/03:30pm SSE 18-21 kts 24.8°c 1018.5 hPa 70% 2.2mm
23/03:00pm SSE 17-20 kts 24.7°c 1018.4 hPa 66% 2.2mm
23/02:30pm SE 17-21 kts 24.9°c 1018.6 hPa 63% 2.2mm
23/02:00pm SSE 17-20 kts 25.4°c 1019.1 hPa 65% 2.2mm
23/01:30pm SSE 16-21 kts 25.0°c 1019.6 hPa 65% 2.2mm
23/01:00pm SSE 17-20 kts 24.9°c 1019.9 hPa 65% 2.2mm
23/12:30pm SSE 16-20 kts 24.6°c 1020.3 hPa 67% 2.2mm
23/12:00pm SSE 18-22 kts 24.3°c 1020.5 hPa 68% 2.2mm
23/11:30am SSE 16-21 kts 24.5°c 1020.8 hPa 72% 2.2mm
23/11:00am SE 19-23 kts 24.0°c 1021.0 hPa 77% 2.2mm
23/10:30am SE 19-23 kts 23.3°c 1021.0 hPa 80% 2.2mm
23/10:00am ESE 20-26 kts 22.5°c 1021.1 hPa 86% 2.2mm
23/09:30am ESE 22-28 kts 23.0°c 1021.1 hPa 86% 0.4mm
23/09:00am SE 21-27 kts 22.8°c 1021.0 hPa 86% 7.4mm
23/08:30am SSE 16-20 kts 23.8°c 1020.9 hPa 83% 6.6mm
23/08:00am S 11-14 kts 22.6°c 1020.6 hPa 83% 6.6mm
23/07:30am S 10-16 kts 22.5°c 1020.6 hPa 82% 6.6mm
23/07:00am S 14-18 kts 21.7°c 1020.4 hPa 84% 6.6mm
23/06:30am S 13-19 kts 21.6°c 1020.2 hPa 84% 6.4mm
23/06:00am SSE 6-11 kts 21.8°c 1020.1 hPa 82% 4.6mm
23/05:30am S 17-23 kts 21.7°c 1019.4 hPa 83% 4.4mm
23/05:00am S 15-20 kts 22.0°c 1019.5 hPa 80% 4.4mm
23/04:30am SE 15-21 kts 22.7°c 1019.0 hPa 84% 4.4mm
23/04:00am S 9-13 kts 21.5°c 1018.7 hPa 84% 4.4mm
23/03:30am SSW 5-8 kts 21.4°c 1019.0 hPa 85% 4.4mm
23/03:00am ESE 13-24 kts 21.9°c 1019.1 hPa 82% 4.0mm
23/02:45am SE 19-30 kts 20.9°c 1019.4 hPa 86% 3.6mm
23/02:30am ESE 23-27 kts 23.4°c 1019.3 hPa 80% 2.0mm
23/02:27am SE 23-27 kts 23.8°c 1019.3 hPa 75% 2.0mm
23/02:00am SSE 18-23 kts 24.5°c 1019.2 hPa 68% 2.0mm
23/01:30am SE 18-21 kts 24.7°c 1019.5 hPa 66% 2.0mm
23/01:00am SE 19-23 kts 24.8°c 1020.0 hPa 64% 2.0mm
23/12:30am SE 19-22 kts 24.9°c 1020.3 hPa 66% 2.0mm
23/12:00am SE 20-25 kts 24.7°c 1020.3 hPa 65% 2.0mm